Theta_e
332 326 327 328 324 322 322 323 326 326 326 327 325 324 323 319 317 318 318 316 313 310 305 302 302 301 302 303 304 304 304 304 305 306 307 307 307 307 307 307 307 307 307 307 307 307 307 307 307 307 307 308 307 307 310 311 309 312 314 313 314 315 314 313 312 311 313 315 315 315 315 315 313 311 313 313 311 310 311 312 312 314 314 313 314
329 327 329 330 324 323 325 323 325 329 329 326 324 325 322 318 319 321 320 318 316 314 309 305 302 301 301 302 303 304 304 304 304 305 306 306 307 306 306 306 306 306 306 306 306 306 306 306 307 306 307 307 307 307 308 309 309 311 314 315 315 315 315 314 313 311 313 314 315 314 314 314 315 313 314 314 314 314 314 314 315 317 316 314 316
326 326 326 325 322 322 328 329 326 325 326 325 324 323 321 321 324 323 320 319 318 317 314 309 304 302 301 301 302 303 303 303 303 304 305 306 306 306 306 306 306 306 306 306 306 306 306 306 306 306 307 307 307 307 308 310 308 307 312 315 316 316 315 314 313 312 312 312 313 313 313 313 314 314 314 314 314 315 314 314 314 317 317 317 318
326 326 325 323 321 322 326 327 325 323 326 327 324 322 322 324 324 321 319 319 319 318 316 314 309 304 301 301 301 302 303 303 303 303 304 305 305 306 306 306 306 306 305 305 305 305 305 305 305 306 306 306 306 306 307 310 309 309 313 316 316 315 315 314 313 312 312 312 312 313 312 313 313 314 314 314 314 314 314 314 314 315 317 318 318
325 324 324 322 322 325 327 326 326 325 326 327 325 323 325 325 322 320 319 319 320 319 318 316 313 308 304 301 300 301 302 302 303 303 303 304 304 305 306 306 306 305 305 305 305 305 305 305 305 305 305 305 305 304 305 306 308 312 317 317 316 316 315 314 313 312 312 311 312 313 313 312 313 313 313 313 313 313 314 314 314 315 315 316 317
323 322 323 322 323 325 325 324 325 324 323 324 324 324 326 325 322 320 320 321 321 320 319 317 315 311 306 303 301 300 300 301 302 302 303 303 303 304 304 305 305 305 305 305 304 304 304 304 304 305 304 305 305 304 304 304 305 311 317 318 317 316 315 315 314 314 313 311 312 313 313 312 312 313 312 312 312 312 312 313 313 313 314 314 315
322 321 322 322 325 326 324 323 323 323 324 324 324 323 324 323 322 322 322 322 321 320 319 318 316 314 310 306 303 301 300 300 300 301 302 302 303 303 303 304 304 304 304 304 304 304 304 304 304 304 304 304 304 304 304 304 304 305 311 317 317 315 315 316 315 314 314 311 310 312 312 312 311 311 311 311 311 311 311 311 312 312 312 313 313
325 325 325 325 326 326 325 324 324 323 323 323 323 322 322 322 323 323 322 321 320 319 318 318 317 317 316 313 309 306 303 301 300 300 300 301 302 302 302 303 303 303 304 304 304 304 304 304 303 303 303 303 303 304 304 304 304 303 306 314 317 315 315 316 315 315 314 311 310 310 311 311 310 310 311 310 310 311 310 310 311 311 311 312 312
327 327 327 326 324 324 324 326 326 323 321 323 324 324 323 322 323 322 321 321 320 319 318 317 316 317 317 316 315 312 309 306 304 301 300 300 301 301 302 302 302 302 302 303 303 303 303 303 303 303 303 303 303 303 303 303 304 303 303 307 313 314 314 315 315 315 313 312 311 310 309 309 308 309 310 309 310 310 310 310 310 310 310 311 311
325 325 325 325 325 325 325 325 325 323 322 324 324 324 324 323 323 323 322 321 319 319 318 317 316 316 316 316 315 315 314 312 310 306 303 301 300 300 300 301 302 302 302 302 302 302 303 303 303 303 303 302 302 302 303 303 303 303 303 303 306 308 310 311 313 313 312 311 311 309 308 308 308 308 309 309 309 309 308 308 308 309 309 310 310
324 325 325 324 324 324 325 325 324 324 323 323 322 321 322 323 323 323 322 320 319 318 318 317 317 316 315 315 315 315 315 314 313 311 309 305 302 300 299 300 300 301 301 301 301 302 302 302 302 302 302 302 302 302 302 302 302 302 302 302 302 304 307 310 311 309 309 310 309 308 307 308 308 309 309 308 308 308 307 307 307 308 308 309 309
321 322 323 323 323 323 323 323 323 323 323 322 321 321 322 322 322 322 321 319 318 318 317 316 316 316 315 314 314 314 314 314 314 314 312 310 307 304 301 299 299 299 300 300 300 301 301 301 301 302 302 302 302 302 302 302 302 302 302 302 302 302 306 311 311 309 308 308 307 307 308 308 309 310 309 308 308 309 308 307 308 308 308 309 309
319 319 320 320 321 321 321 321 322 322 322 321 320 321 321 320 320 320 320 319 318 317 317 316 316 315 314 314 314 314 314 313 313 313 313 313 311 309 306 303 300 299 298 299 299 300 300 300 301 301 301 301 301 301 301 301 301 301 301 301 302 301 302 306 310 311 310 308 307 307 308 309 309 310 309 308 308 309 309 308 308 308 308 309 309
316 317 318 318 318 318 318 319 320 320 319 319 319 319 319 319 319 318 318 318 317 317 316 315 315 314 314 313 313 313 312 312 312 312 312 312 312 311 310 307 304 301 299 299 298 298 299 299 300 300 300 300 301 301 301 301 301 301 301 301 301 301 300 301 306 311 312 311 310 310 311 310 309 309 309 308 308 308 308 308 308 308 308 309 309
310 311 313 314 315 315 315 316 317 317 317 317 318 318 317 317 316 316 316 316 316 315 315 314 314 313 313 311 311 311 311 311 311 311 311 311 311 311 311 310 307 303 300 299 298 298 298 298 298 299 299 299 300 300 300 301 301 300 301 301 300 300 300 300 301 307 310 312 313 312 311 311 310 309 309 308 308 308 308 307 307 307 307 308 309
305 305 306 306 307 308 309 311 312 312 313 313 314 314 314 314 314 314 314 314 314 314 313 313 312 312 311 310 309 309 309 309 309 310 310 310 310 310 310 309 307 303 301 299 298 298 298 298 297 298 298 298 299 299 300 300 300 300 300 300 301 300 300 300 299 301 304 309 312 312 311 311 310 309 308 307 307 307 307 307 306 306 306 307 309
304 304 304 304 304 304 305 305 305 305 306 307 307 308 309 310 311 311 311 311 312 312 311 311 311 310 309 307 307 306 305 306 306 307 308 308 309 309 309 309 308 306 305 303 301 299 297 297 298 297 297 297 298 298 298 299 299 300 300 300 300 300 300 300 299 299 299 302 308 312 313 312 310 309 307 307 307 307 307 306 305 304 305 307 308
304 304 304 304 304 304 304 304 304 303 303 303 303 304 305 306 307 307 308 308 309 309 309 309 308 308 308 306 304 303 302 303 303 303 306 307 307 307 307 308 308 308 309 308 306 303 301 299 298 298 298 297 297 297 298 298 298 299 299 299 300 300 300 299 299 299 298 297 300 307 312 312 311 310 308 307 307 307 306 305 304 304 305 307 307
304 304 304 304 303 303 303 303 303 303 303 302 302 302 302 302 303 303 304 305 306 306 306 306 306 306 306 305 304 302 301 301 301 301 302 305 306 305 305 305 306 306 307 308 308 308 306 305 303 301 299 298 298 297 297 297 298 298 298 299 299 299 299 299 299 298 298 297 296 300 306 311 312 311 309 308 307 307 306 305 304 304 305 307 307
303 303 303 302 302 302 302 302 302 302 301 302 301 301 301 300 300 300 300 301 302 302 303 303 303 304 304 304 304 303 303 302 301 300 298 300 303 305 304 304 304 304 305 305 306 307 307 307 307 305 303 301 299 298 297 297 297 297 298 298 298 298 298 299 299 299 298 297 296 296 301 308 312 312 310 309 307 306 306 305 305 305 304 306 307
301 301 301 301 301 300 300 300 300 300 300 300 299 299 299 299 299 299 299 299 299 299 299 300 300 301 301 301 302 302 302 302 302 301 299 298 300 302 303 303 303 303 303 303 304 304 305 306 306 307 306 305 303 300 298 298 297 297 297 297 297 298 298 298 298 298 298 298 296 295 297 303 309 311 311 310 308 307 306 305 305 305 304 304 306
299 299 299 299 298 298 298 298 298 297 297 297 297 296 296 296 295 295 295 295 295 296 296 296 297 297 298 298 299 299 299 300 300 301 300 299 299 300 301 301 302 302 302 302 302 302 303 303 304 305 306 306 306 304 301 299 298 297 297 297 297 297 297 297 297 298 298 298 297 296 295 299 304 309 311 311 309 307 306 305 305 305 305 304 305
296 296 296 295 295 294 294 294 293 293 294 293 293 293 292 291 291 291 291 291 291 291 291 291 292 292 292 293 294 295 295 296 297 298 298 299 298 298 299 300 299 300 301 301 301 301 301 302 302 303 304 305 306 306 305 303 300 298 297 297 297 297 297 297 297 297 298 298 298 296 295 296 301 306 309 310 309 308 307 306 305 305 304 303 303
293 293 292 292 291 291 291 291 291 291 291 291 290 290 290 290 289 289 289 289 289 289 289 289 289 288 289 289 289 289 290 291 292 293 294 295 296 296 297 297 297 298 298 299 300 300 300 300 301 302 302 302 303 304 305 305 304 301 299 297 297 297 297 297 297 297 297 297 298 297 295 294 297 303 307 308 308 308 307 306 306 305 304 304 303
291 291 291 291 290 290 290 290 290 290 290 289 289 289 289 289 289 289 289 289 288 288 288 288 288 288 288 288 287 287 287 287 288 288 289 290 291 292 292 293 294 295 295 296 298 299 300 299 299 300 301 301 301 302 302 304 305 304 301 299 297 297 297 297 297 297 297 297 297 297 296 294 294 298 303 306 307 308 307 306 306 305 305 304 304
291 290 290 290 289 289 289 289 289 289 289 289 289 289 289 289 288 288 288 288 288 288 288 288 287 288 288 287 288 287 287 287 287 287 287 287 287 287 288 288 289 290 290 292 294 295 298 299 299 298 299 299 300 300 301 301 302 303 303 301 298 297 296 297 297 297 297 297 297 297 297 295 294 295 300 304 306 307 307 306 306 305 305 304 304
290 289 289 288 288 288 288 288 288 288 288 288 288 288 288 288 288 288 288 288 288 288 288 288 288 288 288 288 288 287 287 287 287 287 287 286 286 286 286 286 286 287 287 288 289 290 293 296 297 298 298 298 298 299 299 299 299 300 301 301 300 298 296 296 297 297 297 297 297 297 297 296 295 293 296 300 304 306 307 306 306 305 305 304 304
289 289 288 288 288 287 287 287 287 287 287 288 288 288 288 288 288 288 288 288 288 288 288 288 288 288 288 288 288 288 288 287 287 287 287 287 286 286 286 286 286 286 286 287 288 288 289 290 293 295 295 296 297 297 298 298 299 299 299 299 299 298 297 296 296 296 297 297 297 297 297 296 295 294 293 295 298 302 304 305 305 304 304 304 303
289 288 288 288 288 288 287 287 287 288 288 288 288 287 287 287 287 288 288 288 288 288 288 288 288 288 288 288 288 288 288 288 288 287 287 287 287 286 286 286 285 286 286 286 287 288 288 288 289 290 291 292 293 294 296 297 297 298 298 299 298 298 297 296 296 296 296 296 296 297 297 296 296 295 293 293 294 296 298 300 301 301 301 301 299
288 288 288 288 288 288 288 288 288 288 288 288 288 288 288 288 288 288 288 288 288 288 288 288 288 288 288 288 288 288 288 288 288 288 287 287 287 286 286 286 285 285 285 285 286 287 288 288 288 288 289 289 289 290 292 294 296 297 297 298 298 298 298 297 296 296 296 296 296 296 297 297 296 295 294 293 293 293 294 295 296 297 297 297 295
287 287 287 287 287 287 287 287 287 287 287 287 287 287 288 287 288 288 288 288 288 288 288 288 288 288 288 288 288 288 288 288 288 288 288 287 287 286 286 285 285 285 285 284 285 286 287 288 289 289 288 288 288 288 289 290 292 294 296 297 298 298 298 298 297 296 295 295 296 296 296 297 297 296 295 294 293 293 293 293 294 294 294 294 293
287 287 287 287 287 286 286 286 286 286 287 287 287 287 287 287 287 287 287 287 288 288 288 288 288 288 288 288 288 288 288 288 288 287 287 287 287 287 286 286 285 285 284 284 284 285 285 286 288 289 288 288 288 288 288 288 289 290 292 295 297 298 298 298 298 297 296 295 295 296 296 296 296 296 296 295 294 293 293 293 293 293 293 293 292
286 286 286 286 286 286 286 286 286 286 286 286 286 286 287 287 287 287 287 287 287 287 287 287 288 287 288 288 288 288 288 288 288 287 287 287 287 287 287 286 286 285 285 284 283 284 284 285 286 288 288 288 288 289 288 288 288 288 289 290 293 295 297 298 298 298 298 296 295 295 295 296 296 296 296 296 295 294 293 293 293 293 293 293 292
286 286 286 286 286 286 286 286 286 286 286 286 286 286 286 287 287 287 287 287 287 287 287 287 287 287 287 287 287 287 287 287 287 287 287 287 287 287 287 286 286 286 286 285 284 284 284 284 284 286 287 287 288 289 288 288 288 288 288 288 288 291 294 296 298 298 298 297 297 295 295 295 295 296 296 296 296 295 294 293 293 293 293 293 293
286 286 286 286 286 286 286 286 286 286 286 286 286 286 286 286 286 286 287 287 287 287 287 287 287 287 287 287 287 287 286 286 287 287 287 287 287 286 287 286 286 286 286 285 285 285 285 285 284 284 285 286 287 288 288 288 288 288 287 288 287 287 289 292 295 297 298 297 297 296 295 295 295 295 295 295 296 296 296 295 294 293 292 292 293
287 287 287 286 286 286 286 286 286 286 286 286 286 286 286 286 286 286 286 286 286 286 287 287 287 287 287 287 287 286 286 286 286 286 286 286 286 286 286 286 286 286 286 285 285 285 285 285 285 284 284 285 286 287 287 287 287 287 287 287 287 287 287 288 290 294 297 297 297 297 296 295 294 295 295 295 295 295 296 296 295 294 293 292 292
288 288 287 287 286 286 286 286 285 285 285 285 285 285 285 285 285 286 286 286 286 286 286 286 286 286 286 286 286 286 286 286 286 286 286 286 286 286 286 286 286 285 285 285 284 284 284 284 285 285 284 284 285 286 287 286 286 287 287 287 287 287 287 287 287 289 292 295 297 297 297 296 295 294 295 295 295 295 295 295 296 295 294 293 292
288 288 288 287 287 286 286 285 285 285 285 285 285 285 285 285 285 285 285 285 285 286 286 286 286 286 285 286 285 285 285 285 285 285 285 285 285 285 285 285 285 284 284 285 284 283 283 283 284 284 284 284 284 285 286 286 286 286 286 287 287 287 287 287 287 287 288 290 293 296 297 296 296 295 294 294 295 295 295 295 295 295 296 295 293
288 288 288 287 287 286 285 285 285 285 285 285 285 285 285 285 285 285 285 285 285 285 285 285 285 285 285 285 285 285 285 284 285 284 284 283 283 283 283 283 283 283 283 283 283 282 282 282 283 283 283 283 283 284 285 285 285 285 286 286 286 286 286 286 287 287 287 287 289 292 295 296 296 295 295 294 294 295 295 295 295 295 296 296 295
288 288 288 287 287 286 285 285 285 285 284 284 284 284 284 284 284 284 284 285 285 285 285 285 285 285 285 285 285 285 284 284 284 283 282 282 281 281 281 280 280 280 281 281 281 281 281 281 282 282 283 283 283 283 284 284 284 285 286 285 285 286 286 286 286 286 286 286 287 288 291 294 296 296 295 295 294 294 295 295 295 295 295 295 295
288 288 288 287 287 286 285 285 285 284 284 284 284 284 284 284 284 284 284 284 284 285 285 285 285 285 285 285 284 284 284 284 283 282 281 280 279 279 279 278 278 278 278 278 279 279 279 280 281 281 282 282 283 283 284 283 283 284 285 284 284 285 285 285 285 286 286 286 286 286 287 290 294 296 296 295 295 294 294 295 295 295 295 295 295
288 288 288 287 287 286 285 285 284 284 284 284 283 283 283 283 283 284 284 284 284 284 284 285 285 284 284 284 284 284 283 283 282 281 280 279 278 277 277 277 276 276 277 277 278 278 278 278 279 280 280 281 282 283 283 283 283 284 284 283 284 284 284 284 285 285 285 285 285 286 286 287 289 293 296 296 296 295 294 294 294 295 295 295 295
288 288 288 287 287 286 285 284 284 284 283 283 283 283 283 283 283 283 284 284 284 284 284 284 284 284 284 283 283 283 282 281 280 280 279 278 278 277 277 277 276 276 276 276 277 278 278 278 279 279 280 280 281 282 283 283 284 284 284 284 284 284 284 284 285 285 285 285 285 286 286 286 286 288 292 295 296 296 295 294 294 294 294 294 295
287 287 287 287 286 285 284 284 284 283 283 283 283 282 283 283 283 283 283 283 283 283 283 283 283 283 282 282 281 281 280 280 279 278 278 278 278 278 278 277 276 275 275 275 275 276 276 277 278 278 279 280 280 281 282 283 283 284 284 284 284 284 284 284 285 285 284 285 286 286 285 285 286 286 287 290 294 296 296 295 294 293 293 293 294
287 287 287 286 285 284 284 284 283 283 283 282 282 282 283 283 282 282 282 283 283 283 282 282 281 281 281 280 280 279 279 278 277 277 277 277 277 277 277 276 275 274 273 273 274 274 275 275 275 276 277 278 278 279 280 281 282 282 283 284 284 284 284 285 285 285 284 285 286 286 286 285 286 286 286 287 290 293 295 295 295 294 293 292 293
287 286 286 285 284 284 283 283 283 283 282 282 282 282 282 282 282 282 282 282 282 282 281 281 280 280 279 278 278 277 277 276 276 276 276 276 275 275 274 273 272 271 272 272 273 273 274 274 274 275 275 276 276 277 277 278 279 279 280 282 283 284 284 285 285 285 285 285 286 287 287 286 286 287 286 286 287 289 292 295 295 294 294 293 292
286 286 285 284 284 283 283 282 282 282 282 282 282 282 282 282 281 281 281 281 281 281 281 280 279 279 278 277 276 276 275 275 275 275 275 274 274 273 272 271 271 271 271 272 272 273 273 274 274 275 275 275 275 276 276 277 278 278 279 280 281 282 283 283 284 284 284 285 285 286 286 286 286 287 286 285 286 287 289 292 294 294 294 294 293
286 285 284 283 283 283 282 282 282 282 282 282 282 282 282 281 281 281 281 281 280 280 280 279 278 277 277 276 275 274 274 274 274 274 274 273 272 271 271 271 272 272 272 272 273 273 274 274 275 275 275 276 276 276 277 277 278 279 280 280 281 282 282 283 283 283 283 284 285 285 286 285 286 287 286 285 285 286 286 288 291 293 294 294 293
285 285 284 283 283 282 282 282 282 282 282 282 282 282 281 281 280 280 280 280 279 279 279 278 277 276 275 274 273 273 273 273 274 274 273 272 272 272 272 272 272 272 272 273 273 274 274 274 274 275 275 275 276 276 277 278 278 278 279 280 281 282 282 283 284 284 284 284 284 285 286 285 285 286 286 286 286 286 286 286 288 291 293 293 293
285 284 283 283 282 282 282 281 281 282 282 282 281 281 281 280 279 279 279 279 278 278 278 277 276 276 275 274 273 273 273 273 273 273 272 272 273 273 273 273 273 273 273 274 274 274 275 275 275 275 275 275 275 275 276 276 276 277 277 278 279 279 280 281 283 283 284 285 285 285 285 285 285 285 286 286 287 287 286 286 286 288 290 292 293
284 283 282 282 282 281 281 281 281 281 282 281 281 280 280 279 278 278 278 278 278 277 277 277 276 275 274 274 273 273 273 273 273 273 273 273 273 273 273 274 274 274 275 275 275 275 275 275 275 275 275 275 275 275 275 275 275 275 276 276 277 277 278 279 280 281 283 284 285 285 285 285 285 286 286 286 287 287 286 286 286 286 288 291 292
Wind_Speed
14 16 17 17 19 18 18 17 20 21 17 21 22 17 19 19 14 13 14 13 12 13 15 17 17 17 16 16 16 15 14 12 11 11 11 11 11 11 12 12 12 12 13 14 14 15 16 16 16 17 15 14 16 14 10 12 11 8 8 8 7 8 10 11 11 8 5 4 5 7 6 6 8 8 8 8 9 11 12 11 11 10 11 12 12
15 15 16 18 19 17 17 17 18 21 18 19 18 17 22 19 15 17 16 13 13 13 14 17 18 18 18 17 17 17 16 14 13 13 12 12 12 12 12 12 13 13 13 13 14 15 16 16 16 17 16 15 15 14 12 12 12 9 7 8 8 7 7 9 9 7 7 7 7 8 6 5 6 7 7 7 8 10 11 11 11 9 9 10 11
14 13 13 15 14 13 17 18 16 18 19 19 19 20 20 17 16 19 17 13 12 13 14 15 18 20 20 19 18 18 18 17 16 15 14 13 13 13 14 14 14 13 13 13 14 14 15 16 16 16 16 15 15 14 13 13 14 12 9 9 7 7 8 7 7 9 10 9 9 12 11 7 6 7 6 6 7 7 9 13 12 10 10 10 11
10 10 10 10 9 8 12 15 15 16 17 18 20 18 15 14 17 18 15 11 10 12 13 14 16 19 21 21 21 20 20 19 18 17 16 15 15 14 15 15 15 15 14 14 13 14 15 16 17 16 16 16 15 14 13 13 14 13 9 8 9 10 8 9 11 13 12 10 9 10 10 8 8 8 6 7 8 6 8 11 13 13 11 12 13
10 10 10 9 6 8 12 13 14 15 14 17 18 15 14 15 16 16 13 11 12 13 13 14 15 17 20 22 23 22 22 22 21 20 19 18 17 16 17 16 16 16 16 15 14 14 15 16 17 17 17 17 16 14 14 13 12 11 10 10 13 12 10 13 15 14 13 11 8 7 7 7 8 9 8 8 10 9 8 8 10 13 15 15 15
10 9 9 6 4 6 8 9 11 12 12 13 13 11 13 14 13 14 14 13 15 16 14 14 13 14 16 19 22 24 24 24 23 22 22 20 19 19 18 18 17 17 17 16 16 15 16 16 17 18 18 18 18 16 16 15 13 12 11 13 15 12 12 16 17 18 18 13 8 7 6 7 8 10 9 9 10 10 11 9 7 10 15 15 14
8 7 6 5 4 6 6 6 7 8 9 10 10 9 10 11 11 12 13 14 16 17 16 14 13 13 13 16 19 22 24 25 25 24 23 23 22 21 20 19 19 19 18 18 17 17 17 17 17 18 18 18 19 18 18 17 16 14 13 14 16 14 13 15 18 21 22 16 10 8 7 8 10 12 11 11 11 11 12 11 8 8 10 10 11
9 9 10 8 7 9 7 6 7 8 7 6 7 8 9 9 11 12 14 15 16 18 18 17 16 15 14 14 15 18 21 23 25 25 25 24 24 23 22 22 21 20 20 19 19 19 18 18 18 18 19 19 19 19 19 19 18 16 14 13 15 15 13 15 20 21 21 19 13 10 10 10 13 14 13 12 12 12 11 10 9 9 9 9 9
9 9 10 9 10 11 9 8 11 10 8 9 11 12 12 10 10 12 13 14 13 14 17 18 19 19 18 16 15 16 17 19 21 24 26 26 25 26 25 24 23 23 22 21 21 20 20 20 20 20 20 20 20 20 20 20 20 18 16 15 15 16 15 16 19 19 20 19 16 16 16 16 17 16 15 15 13 13 12 10 10 11 9 10 11
9 9 10 10 10 13 13 13 14 11 10 13 15 15 14 14 13 12 12 12 11 12 14 16 17 19 20 20 19 18 17 18 19 20 23 25 27 27 27 27 25 25 24 24 23 23 22 22 22 22 21 21 21 20 21 21 21 20 19 18 18 19 19 20 21 23 24 22 22 24 22 21 21 18 17 18 17 15 15 13 12 12 11 10 11
10 10 11 11 10 9 9 10 11 11 12 14 14 13 13 15 15 14 13 13 13 14 15 16 17 18 19 21 22 22 21 20 19 19 20 22 25 27 28 28 27 27 26 26 26 25 25 25 24 24 23 23 23 22 22 22 22 22 21 20 20 20 20 20 23 27 27 26 26 26 25 24 24 22 22 22 21 19 16 14 12 12 12 10 10
10 11 11 12 12 12 12 12 10 10 12 13 13 13 14 15 16 15 14 14 15 16 16 17 18 19 21 22 22 23 24 23 23 21 20 20 22 24 25 27 28 28 27 27 27 27 27 27 27 26 26 25 25 24 24 23 23 23 22 22 21 21 19 17 20 22 23 23 24 25 24 25 25 26 26 24 21 18 15 13 12 11 11 10 10
9 10 10 11 13 14 14 13 12 12 12 11 10 11 13 14 15 14 14 14 16 16 17 19 21 22 23 24 24 25 26 27 26 24 23 22 22 22 23 24 26 27 27 28 28 28 28 29 29 29 28 28 27 26 26 25 25 24 24 24 23 23 22 20 19 19 21 22 21 22 22 24 25 24 24 19 15 15 14 13 12 11 11 11 10
8 10 11 12 14 15 15 15 16 16 16 15 14 14 14 14 15 15 15 16 16 16 18 20 21 22 24 26 27 26 27 27 27 26 25 24 23 22 22 22 22 23 25 27 28 29 29 30 31 31 30 30 29 29 28 27 27 26 25 25 25 24 24 23 21 18 21 23 23 22 22 25 23 19 18 16 12 13 13 13 13 12 12 12 11
6 7 9 11 13 14 14 15 16 18 19 19 19 19 19 18 18 18 18 17 17 17 17 18 19 20 21 22 24 27 28 26 24 24 24 24 24 24 24 22 21 21 22 22 24 26 28 29 31 32 32 32 31 31 31 30 29 28 27 27 26 26 25 25 24 22 20 22 25 24 23 26 23 16 16 15 13 13 13 13 13 13 13 13 12
5 5 6 6 7 8 9 11 12 13 15 16 17 18 18 18 18 18 18 18 17 17 17 18 18 18 17 17 19 22 22 21 25 27 25 25 25 23 23 22 21 21 21 20 20 21 22 24 26 28 30 31 32 32 32 32 31 31 30 29 28 27 27 26 27 26 23 21 24 25 25 26 22 15 15 16 15 14 13 13 13 14 13 13 14
7 7 7 7 7 7 7 7 8 8 9 10 11 12 13 14 15 16 17 17 17 17 17 17 17 16 15 15 15 15 17 22 29 31 27 25 25 25 24 23 24 24 24 24 22 21 21 21 21 23 24 26 28 30 32 33 33 33 32 31 30 29 28 28 28 28 27 24 24 25 23 22 23 18 15 16 16 15 14 14 15 15 14 13 14
9 8 8 8 7 7 7 7 7 8 8 9 10 10 11 12 13 13 14 15 16 16 17 18 17 16 15 14 13 14 19 24 26 29 33 33 30 29 29 28 29 29 30 29 28 26 26 25 25 24 23 23 23 24 27 30 33 34 34 33 33 32 31 30 29 29 29 27 27 26 22 22 27 26 19 17 16 16 15 15 16 15 14 14 15
9 9 8 8 8 8 8 8 8 8 8 9 9 10 11 12 12 13 13 14 15 15 16 17 17 16 16 16 15 16 18 20 22 26 33 38 36 33 32 32 32 32 33 33 32 32 32 32 31 31 29 28 26 24 24 25 28 31 34 35 35 34 33 32 31 30 30 30 29 29 26 24 26 26 22 19 18 17 16 16 16 16 15 15 15
8 8 9 9 9 9 9 9 9 9 9 10 10 10 11 11 11 12 13 13 14 14 15 17 17 17 17 18 18 19 19 20 21 22 25 33 40 40 38 36 35 35 35 34 34 34 35 36 35 35 35 33 32 30 28 26 26 27 29 31 34 35 36 34 33 32 31 30 31 31 30 27 24 24 24 24 21 18 17 17 17 16 16 16 15
6 7 7 8 8 9 9 9 9 10 11 12 12 12 12 12 12 12 12 12 13 14 14 16 17 18 19 20 20 21 21 21 22 22 22 26 34 40 42 41 40 38 36 35 34 34 35 36 37 37 37 36 36 35 34 32 30 28 27 27 29 31 34 36 36 35 33 32 31 32 33 31 28 24 25 28 27 21 19 19 18 17 16 17 17
6 6 6 7 8 8 9 9 10 11 11 11 12 13 14 14 14 14 14 14 14 14 14 14 15 16 17 19 20 20 21 22 22 23 25 26 29 35 40 43 45 44 41 39 38 37 36 36 37 37 37 37 37 37 37 36 34 33 30 28 27 27 30 33 36 36 35 34 32 32 34 34 33 28 26 29 30 26 23 20 18 17 17 17 18
6 6 6 7 7 9 9 10 10 10 10 11 12 13 14 15 15 15 15 15 15 15 15 15 15 16 16 17 17 18 19 20 21 22 24 27 30 34 37 40 45 47 45 44 43 41 39 38 37 36 36 36 37 37 38 38 38 36 35 33 30 28 27 29 33 36 36 36 34 34 34 35 36 33 30 29 28 27 26 22 19 18 18 17 18
5 6 6 7 8 9 9 10 10 11 11 12 12 13 13 14 14 15 15 16 16 16 16 17 17 17 18 18 18 18 18 18 19 20 21 24 27 32 35 36 41 44 44 44 45 43 41 39 37 35 34 34 35 35 36 37 38 37 37 37 35 32 29 28 29 32 36 37 36 35 35 36 37 38 37 34 31 28 26 25 22 20 19 19 18
4 5 6 7 8 8 9 10 10 11 12 12 12 13 13 14 15 15 16 17 17 18 19 19 20 20 20 21 20 20 20 20 20 20 21 22 24 28 30 30 35 39 39 40 41 42 42 40 38 36 35 34 33 33 34 35 36 36 36 38 37 36 33 29 27 29 32 36 37 37 36 36 37 40 41 40 38 35 31 28 25 22 21 21 20
6 7 7 8 8 9 9 10 10 10 11 11 12 13 13 14 15 16 16 17 18 19 19 20 21 21 22 22 23 23 23 23 23 23 23 23 24 26 29 30 34 37 37 37 39 40 40 38 37 36 35 34 33 32 31 31 32 33 34 37 38 38 36 33 29 28 29 32 36 38 38 37 37 40 43 43 43 42 41 37 31 26 23 23 22
9 9 8 8 8 8 9 9 9 9 10 10 11 11 12 13 14 15 16 17 18 18 19 20 21 22 23 24 25 25 25 25 25 25 25 25 25 25 27 30 35 39 40 40 41 40 40 39 37 36 34 34 33 32 31 30 29 28 30 33 36 37 37 36 33 31 29 29 32 36 38 38 38 39 42 45 45 45 46 45 42 37 32 26 24
10 9 9 9 9 8 8 9 9 10 11 11 12 12 12 13 14 15 16 17 18 19 21 22 23 25 26 27 28 28 28 28 28 28 27 27 28 27 26 26 30 36 40 43 45 44 43 42 40 39 36 35 35 34 33 33 32 30 29 30 33 35 36 37 36 34 32 31 30 32 37 39 39 39 41 44 46 46 46 46 46 45 40 31 27
9 9 9 9 9 9 10 10 11 12 13 14 14 14 15 16 16 17 18 19 19 21 22 24 25 27 28 29 31 31 31 31 31 31 30 30 30 29 29 27 26 29 33 38 46 47 45 45 44 42 41 38 37 36 35 35 35 34 33 33 33 33 33 35 36 36 35 34 32 31 33 37 40 40 40 42 44 45 46 46 45 45 42 37 32
9 9 9 9 10 10 11 12 13 14 14 15 16 17 17 19 20 21 22 23 23 24 25 26 27 29 30 31 33 34 34 34 34 33 33 32 32 31 31 30 29 30 30 33 42 46 46 47 47 45 45 43 41 39 38 36 35 35 36 37 37 35 34 34 35 36 36 35 34 32 32 34 38 41 41 42 43 44 45 45 45 44 43 41 37
8 9 9 10 10 11 11 12 13 14 15 16 17 18 19 20 21 23 24 25 27 27 28 30 31 33 34 34 35 35 36 36 36 36 35 34 34 33 33 33 32 33 33 33 40 46 44 46 49 48 46 46 44 43 42 39 36 35 35 36 38 38 38 37 36 36 36 36 36 34 32 32 35 38 41 42 43 44 44 44 44 44 43 42 39
10 10 11 11 12 12 13 14 14 15 16 17 19 20 21 22 22 24 25 26 27 28 29 31 33 35 37 38 39 40 40 40 39 38 37 36 36 36 35 36 35 35 36 35 41 48 46 44 48 50 47 47 47 47 46 44 40 37 36 35 36 37 38 40 40 38 37 37 37 36 34 32 32 35 39 42 43 44 45 44 43 43 43 42 40
13 13 14 15 15 16 16 17 18 18 19 20 21 22 23 24 25 26 27 28 28 29 30 30 31 33 36 38 39 41 42 43 43 42 42 40 38 38 37 37 38 37 38 38 42 50 50 45 46 49 48 48 50 49 48 47 45 40 39 37 36 35 36 38 40 41 40 39 39 38 37 35 33 33 35 39 43 44 45 45 44 43 43 42 40
16 17 18 18 19 19 20 20 21 22 23 23 24 26 27 27 28 29 30 31 31 32 32 33 33 34 36 37 38 39 39 41 42 43 44 44 43 43 41 40 40 40 39 40 42 48 52 50 47 48 48 47 49 50 48 49 48 45 43 41 38 36 36 36 37 39 40 40 41 41 40 38 36 35 34 35 39 41 43 45 45 45 44 43 42
20 21 21 22 22 23 23 23 24 25 26 27 27 29 30 31 32 32 33 34 34 35 35 36 36 37 38 39 39 39 39 40 40 40 41 43 44 46 46 45 45 44 42 41 42 46 52 53 49 47 48 48 48 50 49 50 50 48 47 46 42 39 37 36 37 37 38 39 40 41 42 41 40 38 37 36 36 38 39 41 44 45 46 45 43
23 24 25 26 26 26 27 27 28 28 29 30 31 32 33 34 35 35 36 36 37 37 38 38 39 40 41 42 42 43 42 42 42 41 40 41 42 44 47 48 49 49 48 44 43 45 49 53 52 49 48 49 49 50 50 51 51 50 50 49 46 43 40 38 37 37 37 37 39 41 42 43 43 41 40 39 38 38 38 40 41 43 45 47 46
26 26 27 29 29 29 30 30 31 31 32 33 34 35 36 36 38 38 39 39 39 40 40 41 42 42 43 45 45 46 46 46 47 46 45 44 44 45 46 47 49 50 51 49 48 46 47 52 54 52 49 49 49 49 49 50 52 52 52 51 49 47 45 41 39 38 37 36 37 39 41 43 44 44 43 42 42 42 41 41 42 42 43 46 47
27 28 28 29 30 30 31 31 32 33 34 35 36 37 38 39 39 40 41 41 42 42 42 43 44 45 46 47 47 47 48 49 50 50 50 49 48 48 48 48 49 49 50 51 51 48 47 50 53 53 50 48 48 49 49 48 50 53 53 53 52 50 48 46 43 40 37 36 36 36 38 40 42 44 45 44 43 44 44 44 45 44 43 44 46
29 29 29 30 30 31 31 32 33 34 35 36 37 38 39 40 41 42 42 43 43 43 43 44 44 46 47 48 49 49 49 50 51 51 51 50 50 50 49 48 47 47 48 50 50 49 49 51 53 53 50 46 44 46 47 45 46 49 52 53 54 52 50 48 47 43 39 37 36 36 36 37 39 42 44 45 45 45 46 47 47 46 45 43 43
31 31 31 32 32 32 32 33 34 35 36 37 38 39 40 41 42 43 43 44 44 44 44 45 45 46 47 48 49 50 50 51 51 51 50 49 48 49 49 45 43 44 46 47 48 48 48 49 52 53 50 46 43 42 43 42 43 48 50 49 51 53 52 49 48 46 43 40 39 37 36 36 37 39 42 45 47 47 47 48 48 48 47 45 43
33 33 33 34 34 34 34 34 35 36 37 38 40 41 42 43 43 44 44 45 45 46 46 46 47 48 49 49 50 51 51 51 51 50 49 47 44 45 46 43 40 40 42 43 44 45 45 47 50 51 50 48 45 41 40 40 40 44 46 44 45 51 52 50 50 49 46 43 41 39 37 36 37 38 40 44 48 49 49 48 49 50 49 48 46
34 34 35 36 36 36 36 36 37 38 39 40 41 41 42 43 44 44 45 45 46 47 48 49 49 50 51 52 52 52 52 51 51 49 47 45 42 41 41 39 37 36 38 39 40 41 42 44 47 50 50 51 50 44 41 41 38 38 40 41 42 47 48 48 51 52 48 43 41 40 39 36 35 37 39 41 45 48 50 51 50 50 49 48 47
35 35 36 37 37 37 37 38 39 40 41 41 41 42 42 42 44 44 46 46 47 48 49 50 52 52 53 53 53 53 52 51 50 48 46 45 42 40 38 37 34 33 34 36 38 39 40 41 44 45 46 50 51 47 43 42 39 35 35 36 38 41 43 43 47 51 49 43 39 40 40 37 34 36 38 40 41 44 48 52 52 50 48 48 48
36 37 37 37 37 38 39 40 41 41 41 41 41 42 42 42 43 44 46 47 48 49 50 51 52 53 53 53 52 52 51 50 48 47 45 43 40 38 37 35 32 30 30 31 35 38 39 41 43 45 46 47 47 45 41 38 36 34 33 34 35 37 39 40 41 47 49 43 38 40 43 41 37 36 38 39 39 41 43 48 50 50 49 48 48
37 38 38 38 38 39 40 41 41 41 41 41 41 42 42 43 43 44 45 47 48 49 50 50 51 52 52 52 51 51 50 48 46 44 43 41 39 37 36 34 32 30 27 26 28 31 35 38 43 49 51 49 47 47 44 39 37 37 36 36 35 34 36 39 40 43 45 42 39 40 45 45 40 38 40 40 38 38 39 42 46 48 50 49 48
38 38 38 38 38 39 40 41 42 41 41 41 41 41 42 43 43 44 45 47 48 48 49 49 50 50 50 49 49 48 47 45 44 42 41 39 37 35 34 32 30 29 27 27 27 27 29 32 37 44 48 46 47 51 51 46 44 43 41 40 39 37 38 40 41 43 42 40 39 40 45 48 44 41 44 43 39 39 39 39 41 43 46 48 47
38 38 38 39 39 40 41 41 41 41 41 41 41 41 42 42 43 44 45 46 47 48 49 49 48 49 48 47 46 45 45 43 41 39 36 34 33 33 33 32 31 31 30 29 28 29 29 31 34 39 42 41 42 45 46 44 43 42 40 41 42 42 43 44 45 46 45 43 41 40 45 50 46 43 46 46 42 41 40 39 39 39 42 45 45
39 39 39 39 40 41 41 41 41 41 41 40 40 41 42 42 43 44 45 46 47 48 48 48 47 47 46 45 43 42 42 42 39 34 30 29 30 33 34 35 36 36 35 33 30 30 30 31 34 36 38 39 38 39 40 39 38 38 38 40 41 42 44 46 47 49 48 46 44 42 45 50 48 45 47 48 45 43 43 41 39 38 39 42 44
39 39 39 40 41 41 41 41 41 41 41 40 40 40 41 42 42 43 45 46 47 47 47 46 46 45 43 41 40 40 40 39 36 31 28 29 32 36 38 39 39 39 38 36 33 31 31 31 33 35 37 37 37 37 37 36 36 35 35 39 42 41 40 42 45 47 48 47 44 41 42 49 51 48 48 48 46 45 44 42 41 39 38 39 41
40 40 40 40 41 41 40 40 40 41 41 40 39 40 41 40 41 42 44 45 46 46 46 45 44 43 41 39 36 36 37 37 34 31 30 31 34 36 38 39 39 39 39 38 37 37 36 36 36 36 37 37 36 36 36 35 33 31 31 38 42 41 41 43 44 46 47 46 44 41 41 45 49 48 46 45 45 46 46 44 42 41 39 38 39
40 39 40 40 41 40 39 39 39 40 40 40 39 39 40 39 40 40 42 43 44 44 43 43 43 42 40 39 36 34 34 34 32 30 30 32 33 34 35 37 39 40 39 39 40 41 41 41 40 40 39 39 38 38 39 38 36 34 33 37 39 40 43 48 48 46 46 44 41 39 42 45 46 46 44 42 43 46 46 44 42 42 41 39 38
Wind_Direction
277 282 276 275 269 258 251 251 259 260 257 269 279 288 290 295 303 313 313 299 290 280 268 260 254 254 257 261 265 268 271 275 278 282 286 290 293 298 302 307 312 315 319 322 323 325 326 328 329 330 331 327 329 335 325 321 326 317 307 310 307 297 303 307 302 294 277 265 270 269 266 277 274 254 250 252 246 245 244 242 235 237 246 236 228
263 271 265 268 273 264 253 257 262 254 257 278 284 285 292 303 312 311 308 300 295 286 278 268 259 256 255 258 262 266 269 271 274 276 279 281 284 290 294 298 302 306 311 314 318 321 322 325 326 326 326 326 327 328 322 316 321 318 289 300 311 290 298 310 306 291 267 255 258 268 266 276 284 262 248 249 247 247 245 238 227 232 242 229 219
256 259 262 269 267 254 247 249 260 264 267 278 283 286 295 309 310 303 300 299 298 293 286 276 266 260 256 256 258 261 264 266 268 270 271 274 276 281 285 289 293 296 302 306 312 314 317 319 319 321 320 322 323 321 320 312 318 319 288 298 305 280 293 299 299 303 292 280 268 268 268 270 279 269 258 257 255 254 249 238 226 228 231 224 222
249 252 263 272 257 253 262 262 269 271 266 273 285 293 299 304 302 298 297 301 308 305 295 282 271 264 259 256 255 257 259 261 262 263 264 266 268 272 274 279 284 288 292 296 302 306 310 311 311 315 315 317 318 315 312 304 309 310 295 298 283 277 287 278 293 303 298 297 288 280 273 263 265 266 261 259 253 247 257 247 230 227 226 222 220
241 248 259 266 256 264 271 272 275 271 266 275 285 296 299 298 301 303 308 318 322 317 307 294 279 269 263 258 256 255 256 257 259 260 260 260 261 264 266 270 275 279 284 287 291 296 301 303 305 310 312 312 313 310 305 299 297 290 284 283 273 277 275 273 292 302 299 297 286 286 282 265 263 266 263 263 259 244 251 257 241 232 227 226 221
238 242 251 248 236 262 268 269 273 272 274 277 282 293 294 293 300 310 318 324 324 321 316 309 297 284 273 265 260 257 257 258 258 259 259 259 259 259 261 264 268 272 276 279 283 287 291 295 299 304 307 308 310 307 302 297 292 280 276 277 273 275 277 285 298 300 303 305 287 279 279 271 266 264 259 261 267 255 246 250 261 248 232 235 233
244 243 239 225 231 248 243 238 241 250 267 276 279 286 290 297 307 313 314 313 315 316 315 315 313 305 292 280 271 265 262 260 260 261 261 260 259 259 260 261 264 267 270 273 276 279 282 287 291 296 299 303 305 304 302 298 294 285 276 274 269 265 272 283 287 288 294 299 292 279 271 274 271 267 264 260 264 263 253 248 264 269 246 250 253
238 247 244 238 254 252 235 243 254 248 253 269 277 280 282 293 301 300 300 302 307 309 308 310 311 310 304 293 283 277 271 267 265 264 262 262 261 261 261 261 262 263 266 269 270 272 275 279 283 287 291 296 299 300 300 298 297 291 281 271 265 266 273 279 281 282 287 291 290 283 276 277 276 273 272 268 264 262 260 255 258 262 256 246 244
256 255 251 247 250 249 242 252 262 255 254 261 264 265 263 262 274 286 290 293 302 308 305 304 302 302 302 298 292 287 282 276 272 268 265 263 262 263 262 262 262 263 265 266 267 268 270 273 276 280 285 288 291 294 296 296 297 294 284 270 263 263 262 263 272 276 279 283 282 284 282 279 281 279 274 272 268 263 255 249 247 249 257 240 227
278 272 268 269 261 254 247 241 243 247 259 268 267 267 268 264 263 270 276 282 299 308 304 302 299 298 297 297 296 293 290 285 279 274 269 265 263 263 263 263 263 264 265 266 267 268 269 271 273 276 279 282 285 288 290 293 294 294 288 276 268 265 262 255 257 263 270 274 275 280 282 281 285 283 277 274 271 269 260 253 249 246 253 245 236
266 270 273 290 300 290 276 262 251 246 254 263 265 267 272 274 270 268 270 279 290 293 294 296 295 295 295 295 295 294 292 289 284 279 274 269 266 264 264 264 265 265 267 268 269 270 270 271 272 273 275 277 280 282 285 288 290 291 288 282 275 268 267 262 259 262 266 269 272 277 280 281 283 280 278 276 271 271 267 262 261 253 252 250 247
265 270 268 278 293 301 307 312 304 282 273 269 264 263 264 267 268 267 270 280 288 288 290 290 289 289 290 290 290 290 290 288 286 284 281 277 274 271 268 265 265 266 267 269 270 271 272 272 272 272 273 274 276 278 280 283 286 288 287 284 280 273 268 265 266 269 269 267 269 274 276 278 281 279 279 275 265 263 264 263 262 257 255 252 251
263 265 265 267 274 279 284 292 297 296 295 293 286 277 271 267 266 265 269 279 286 288 289 289 289 290 288 286 285 285 287 287 288 287 286 285 283 281 277 272 270 269 270 270 269 270 271 272 273 273 273 273 274 276 277 279 281 284 285 284 281 276 271 264 262 269 274 275 274 275 277 279 280 278 277 273 259 254 257 258 257 256 254 250 249
273 266 266 268 271 274 273 271 275 281 287 293 295 292 289 286 284 282 282 284 285 286 286 288 291 294 295 293 291 288 285 285 287 288 287 287 287 287 285 282 279 274 272 271 270 270 270 271 273 273 274 274 273 274 274 276 278 280 282 282 280 278 274 267 261 261 271 280 284 283 283 285 283 272 265 264 255 253 251 252 256 254 254 252 248
308 294 283 278 277 278 278 274 272 275 278 281 283 287 289 290 290 290 290 290 290 290 290 293 294 297 300 301 301 299 295 292 288 283 283 285 286 289 289 287 284 278 275 275 274 272 272 272 272 273 274 274 274 274 274 274 275 277 278 278 279 277 274 270 264 258 260 272 280 283 284 286 283 263 254 257 251 251 249 250 256 254 252 251 249
2 348 330 317 307 299 293 287 283 280 278 277 279 281 283 285 287 288 289 290 291 294 296 298 299 300 303 303 305 306 304 302 295 288 285 284 283 283 284 283 280 278 278 279 278 276 275 274 273 273 273 274 274 274 275 274 274 274 275 276 276 276 274 271 267 261 255 256 266 276 282 282 279 260 249 254 249 247 248 249 253 253 251 249 248
19 13 5 359 351 341 334 324 316 308 300 296 293 291 290 289 289 288 289 290 291 294 296 297 299 303 305 306 308 306 302 303 302 298 292 287 284 282 280 279 278 278 278 278 277 276 277 277 278 277 276 275 275 274 273 273 273 273 273 274 274 274 273 270 267 264 260 252 251 265 275 273 275 270 252 249 249 246 248 251 253 253 249 247 248
16 11 7 4 359 355 350 344 340 335 331 328 322 317 311 305 302 298 295 293 293 294 293 292 295 299 299 299 297 295 297 303 306 303 298 294 291 288 285 283 281 279 279 279 277 276 276 278 279 279 278 278 277 276 273 271 271 272 273 273 273 273 272 270 267 264 262 256 246 249 256 259 272 276 260 248 249 247 249 251 252 253 249 247 246
14 11 7 4 2 359 356 352 348 346 342 338 334 331 328 324 321 316 311 306 301 300 299 296 295 294 293 294 292 290 294 300 304 305 304 301 297 295 293 291 289 286 283 281 280 278 277 277 278 277 277 277 276 275 275 273 271 270 270 271 272 273 273 272 269 265 262 258 250 243 242 248 264 268 257 253 255 249 250 251 250 251 248 246 244
14 14 12 11 10 8 10 8 5 5 1 357 356 354 350 345 339 332 327 323 318 315 312 308 305 301 296 295 294 294 295 297 301 305 308 305 299 298 298 297 295 292 289 286 283 282 281 280 280 279 278 277 275 274 273 273 273 271 270 271 272 272 272 271 270 267 263 259 254 245 239 241 250 254 252 260 263 250 246 250 248 249 247 245 244
10 13 13 14 15 15 16 14 14 17 15 15 14 12 10 6 4 0 355 351 346 340 331 324 320 315 309 304 300 297 296 296 299 300 302 304 301 299 299 299 297 294 293 292 288 287 285 283 282 281 280 278 277 276 274 272 271 271 271 272 273 273 272 270 269 268 265 261 256 249 242 238 240 242 246 260 267 257 250 250 245 247 247 246 246
5 8 7 11 14 13 12 11 14 17 16 17 16 13 14 14 15 16 15 14 12 9 2 354 346 338 330 322 316 311 307 303 301 299 299 300 301 300 299 300 300 298 297 297 294 291 289 287 285 283 282 280 279 278 276 274 272 270 270 270 274 275 274 271 268 267 266 263 259 253 247 240 235 234 239 254 263 260 259 256 245 246 248 246 247
7 5 3 10 13 12 13 14 15 15 14 15 13 13 15 15 16 15 15 16 17 17 15 11 6 1 356 350 344 338 331 322 314 308 303 300 300 299 297 298 299 296 296 298 296 293 292 290 288 287 285 283 281 280 278 277 274 272 270 269 271 274 277 276 271 267 266 265 261 255 250 243 236 232 233 243 253 257 260 259 251 249 251 250 249
8 7 8 15 17 15 16 16 15 14 14 15 14 14 13 11 10 9 9 9 9 9 8 5 4 2 1 360 358 355 350 342 333 326 317 310 305 302 302 301 299 298 300 301 299 297 296 294 292 290 288 286 284 282 280 279 277 274 272 270 269 270 274 278 277 271 266 264 262 257 252 246 240 235 233 236 242 245 251 255 252 251 253 255 252
2 2 6 14 13 10 9 9 9 11 12 12 11 9 7 5 4 4 4 3 2 2 2 360 358 356 355 353 352 351 348 344 340 337 332 326 319 314 314 311 305 305 309 308 305 302 300 299 300 297 293 290 288 286 283 281 278 276 274 271 269 268 269 273 277 276 270 265 262 259 255 250 244 239 237 237 237 238 240 245 247 250 255 258 254
359 0 5 8 7 5 6 6 7 7 7 6 4 2 359 357 357 357 358 359 358 357 355 354 352 350 348 346 345 344 341 338 335 333 330 328 326 323 322 319 314 313 315 314 311 308 304 305 307 305 302 299 295 291 289 286 282 279 277 273 270 267 267 267 270 275 276 271 266 262 258 253 248 242 239 239 240 242 243 245 245 245 250 255 256
357 1 4 4 3 5 6 5 4 3 1 360 357 355 351 349 348 347 348 349 348 348 347 346 345 343 342 340 339 339 336 332 329 327 325 322 321 321 320 320 318 316 316 315 313 312 311 310 310 310 310 309 305 301 295 292 288 283 279 275 272 269 267 266 266 269 274 275 271 266 261 256 251 246 241 241 242 245 248 250 250 250 251 252 252
346 348 349 353 356 358 358 357 356 354 352 352 350 348 345 342 340 338 338 339 338 338 338 337 338 337 337 335 334 334 332 329 326 323 321 317 315 315 313 314 314 313 314 314 312 312 313 313 312 312 314 314 312 309 304 298 293 288 282 277 274 270 268 267 266 265 268 272 273 270 265 259 253 249 245 243 244 246 248 250 253 255 255 251 247
322 324 328 332 335 336 336 335 335 335 335 335 335 335 335 333 333 332 331 331 332 332 332 331 331 330 330 330 330 329 328 326 323 320 317 314 311 309 306 305 304 304 305 306 307 308 310 310 311 310 312 313 312 311 309 304 299 293 287 281 277 272 268 267 266 265 264 266 269 270 268 263 257 252 248 245 245 246 249 250 253 255 255 253 252
300 303 306 309 311 312 313 314 315 318 319 320 320 321 322 322 323 324 324 324 324 326 326 326 326 325 325 325 325 324 324 322 321 318 315 312 308 305 302 300 297 295 294 295 297 300 304 306 306 307 308 309 309 308 307 305 303 299 293 287 282 277 272 268 266 265 263 263 265 267 268 266 261 255 251 248 247 248 249 251 253 255 256 256 257
296 296 296 298 300 301 304 308 311 313 315 315 316 316 317 317 317 318 318 318 318 319 320 321 322 322 321 321 321 321 321 319 318 316 313 310 307 304 300 297 294 292 291 290 289 291 296 300 301 303 303 304 305 304 302 302 303 302 298 293 288 283 277 271 267 265 264 263 263 265 266 267 265 260 255 251 250 249 250 252 253 254 256 257 256
305 304 303 303 304 305 308 309 311 313 314 314 314 315 315 315 315 315 315 315 315 315 316 317 318 319 318 319 319 320 320 318 317 314 312 309 306 304 301 298 295 292 291 290 287 288 290 292 294 297 298 299 300 299 299 300 301 301 300 298 295 290 283 276 271 267 264 263 262 264 264 265 266 264 260 256 252 251 251 252 253 254 256 257 255
312 310 310 310 309 310 311 311 312 312 312 312 313 313 313 312 313 313 312 312 312 312 313 313 314 315 315 316 316 317 317 317 316 314 312 309 306 303 301 299 297 295 294 292 290 290 291 289 290 291 293 294 295 295 297 298 298 299 298 297 296 295 291 285 278 272 267 264 262 262 263 264 264 264 263 260 256 253 252 252 253 254 255 256 254
317 316 315 314 314 313 313 313 312 312 312 312 312 312 312 312 312 312 312 312 312 311 311 312 312 312 313 313 314 313 313 312 312 311 310 308 307 305 302 300 298 296 295 294 292 292 292 291 290 289 288 289 289 291 292 293 295 296 295 295 295 295 293 290 285 279 273 268 265 263 262 263 262 262 262 262 260 257 255 253 253 253 254 254 254
320 319 317 316 316 315 315 315 314 314 314 313 314 314 314 313 313 313 313 312 312 311 311 311 311 312 312 312 312 311 310 309 307 306 304 304 303 303 302 301 299 297 295 293 292 291 291 292 292 290 288 287 286 286 288 289 290 291 292 292 293 293 292 291 289 285 279 273 268 265 263 262 261 260 260 260 261 260 258 256 254 253 253 253 253
320 319 318 317 317 316 316 316 316 316 315 315 316 315 315 315 315 314 314 313 312 312 311 311 311 311 312 312 312 311 310 308 306 304 302 300 298 298 297 297 298 297 296 294 291 289 289 290 290 289 289 288 285 284 285 286 286 286 288 289 290 290 289 289 287 287 285 279 273 267 264 262 261 260 259 258 259 260 260 259 257 254 252 252 252
320 319 318 318 317 316 316 316 316 316 316 316 316 316 316 316 315 315 314 313 312 312 311 312 312 312 312 312 312 312 311 309 307 306 303 301 298 296 294 293 293 293 294 293 292 290 287 287 288 288 287 287 286 284 284 284 285 284 284 285 286 286 287 287 286 287 287 286 280 273 267 263 261 260 259 258 258 258 259 259 259 257 253 251 250
319 318 317 316 315 314 313 314 314 314 314 314 314 315 315 315 314 313 313 312 312 311 311 311 312 313 313 312 312 311 310 309 308 307 305 303 301 298 296 293 291 290 289 289 289 289 288 286 286 286 285 285 285 285 284 283 284 284 284 283 283 284 285 286 286 286 286 285 284 279 272 266 262 261 260 258 258 258 258 258 258 258 257 253 250
319 317 316 314 313 311 311 311 312 312 312 313 313 313 313 313 312 311 311 311 310 310 310 310 311 311 311 310 310 309 309 308 307 306 305 304 302 300 298 296 293 291 289 287 286 286 286 286 286 285 285 284 283 283 283 283 282 281 281 282 283 283 284 285 285 285 285 283 282 281 277 271 265 260 259 258 257 257 257 258 257 257 258 256 251
319 317 315 314 313 311 310 310 311 311 311 311 311 312 311 311 311 310 310 309 309 308 308 308 309 309 308 308 307 307 307 306 306 305 304 304 303 301 299 297 295 292 289 287 286 285 284 284 284 284 284 284 282 281 281 281 280 278 279 281 283 282 282 283 283 284 284 283 281 279 278 275 269 262 258 256 255 255 255 257 257 257 257 257 254
318 316 315 314 313 311 310 310 310 311 310 310 311 311 311 311 310 310 309 309 309 308 308 308 308 308 308 307 306 306 306 305 305 305 304 303 302 300 298 297 295 292 290 288 286 285 283 283 282 282 284 284 282 281 279 277 276 277 279 280 280 279 280 282 282 281 282 283 282 280 277 276 274 268 262 255 252 253 255 257 257 257 257 257 256
316 315 314 313 312 310 309 309 310 310 310 310 310 311 312 312 311 310 309 309 310 310 309 310 309 309 309 308 307 306 306 306 306 305 304 302 299 296 295 293 291 289 288 287 286 284 283 283 282 282 283 282 280 279 278 276 275 275 276 278 279 279 280 282 281 279 280 282 282 282 279 277 276 273 267 261 254 251 253 255 256 257 257 258 258
315 314 313 311 310 309 309 309 309 309 309 309 310 311 311 311 311 311 311 310 311 311 311 311 310 310 309 309 308 308 308 308 307 306 305 303 301 299 296 293 288 282 278 278 279 279 280 281 281 281 281 280 278 278 278 278 277 275 274 275 278 280 280 281 281 279 280 282 283 283 281 279 277 274 271 267 261 255 252 252 255 259 260 259 259
314 313 312 310 309 308 307 308 308 308 308 309 310 310 311 311 312 312 312 312 312 312 312 312 311 311 310 310 310 310 309 310 310 309 308 307 305 304 301 297 293 287 279 274 273 273 274 275 274 273 273 274 276 277 278 279 279 279 279 277 274 275 276 277 278 278 279 282 284 284 282 280 277 275 272 269 266 262 256 252 254 257 260 260 259
313 312 311 309 308 306 306 307 307 307 308 309 310 311 311 312 313 313 313 312 312 312 312 312 311 311 311 312 312 312 313 313 313 312 312 311 310 308 305 303 301 298 292 284 278 276 274 273 272 269 267 269 272 273 272 274 277 280 282 280 276 272 272 272 273 275 278 281 281 282 281 279 278 277 272 267 266 266 262 257 253 254 257 259 260
312 310 309 307 306 306 306 307 308 308 309 310 311 311 312 312 314 314 313 313 313 313 312 312 312 312 313 313 313 314 315 314 314 315 316 316 314 311 307 304 302 300 296 290 285 282 278 275 275 274 273 273 274 272 272 273 276 277 277 276 275 273 272 272 272 273 274 275 276 277 277 276 276 276 272 267 266 267 265 261 257 254 254 257 259
310 309 308 306 306 307 308 309 309 309 310 311 311 312 312 313 314 314 313 314 313 313 313 313 314 313 314 314 315 316 315 315 315 317 318 316 312 307 304 302 301 301 297 292 288 286 282 279 279 280 282 282 281 279 279 279 278 278 276 274 273 274 273 272 271 269 268 268 268 269 270 271 272 271 271 270 270 269 267 265 263 258 254 254 256
309 309 307 307 308 309 309 310 309 309 310 311 312 312 312 313 314 314 314 314 314 314 314 315 314 314 314 315 316 316 314 313 315 317 319 316 308 303 303 304 304 303 300 296 290 284 282 282 281 281 282 284 285 283 282 281 279 277 278 277 276 275 272 269 268 268 267 265 263 261 264 268 269 268 269 271 271 270 269 268 267 263 257 254 254
309 308 307 308 309 310 310 310 310 310 310 311 312 312 313 314 315 315 315 315 314 314 314 314 314 313 314 314 315 314 312 312 316 320 319 311 302 300 302 302 301 299 299 300 297 291 289 288 283 280 280 282 283 283 281 281 280 279 278 275 273 273 274 271 268 267 268 265 262 259 259 262 265 265 267 268 268 268 269 268 267 265 262 258 254
308 307 307 308 309 309 310 310 310 310 310 311 312 313 313 315 316 316 316 315 315 314 314 314 313 312 313 313 315 315 313 314 318 317 308 300 297 296 297 297 296 296 297 300 301 299 299 298 293 290 289 287 287 287 286 285 283 280 277 271 269 271 274 273 270 271 271 268 263 259 256 258 261 262 263 265 266 265 265 266 265 265 264 261 256
306 307 308 308 309 309 309 309 309 309 309 310 312 313 314 316 317 318 317 315 315 314 313 311 311 311 313 314 315 316 314 314 317 313 301 295 294 294 294 294 293 294 297 301 301 300 299 299 297 297 296 295 295 294 292 291 288 284 281 276 272 270 269 268 268 270 272 270 266 259 254 255 259 259 258 259 261 262 263 263 263 264 263 262 259